Home   Weather   Beersheba   Past weeks

Flag for Israel Past Weather in Beersheba, Israel — Yesterday and Last 2 Weeks

Now
55 °F

Passing clouds.


Feels Like: 54 °F
Forecast: 47 / 64 °F
Wind: 6 mph from South

Location: Ben Gurion International Airport

Current Time: Jan 19, 2017 at 12:20:55 am

Latest Report: Jan 18, 2017 at 11:50 pm


Visibility: 4 mi

Pressure: 30.15 "Hg

Humidity: 94%

Dew Point: 54 °F

Location of BeershebaLocation

Past Weather in Beersheba — Graph

°F

Beersheba Temperature Yesterday

Maximum temperature yesterday: 68 °F (at 2:20 pm)
Minimum temperature yesterday: 46 °F (at 6:50 am)
Average temperature yesterday: 57 °F

High & Low Weather Summary for the Past Weeks

 TemperatureHumidityPressure
High72 °F (Jan 6, 1:20 pm)100% (Jan 14, 11:20 pm)30.27 "Hg (Jan 14, 11:20 pm)
Low41 °F (Jan 11, 5:50 am)23% (Jan 6, 1:50 pm)29.86 "Hg (Jan 14, 11:20 pm)
Average55 °F66%30.08 "Hg
* Reported Jan 3 11:20 pm — Jan 18 11:05 pm, Beersheba, Weather by CustomWeather, © 2017

Note: Actual official high and low records may vary slightly from our data, if they occured in-between our weather recording intervals... More about our weather records

Advertising

Beersheba Weather History for the Previous 24 Hours

Scroll right to see more
 ConditionsComfort  
Time TempWeatherWind HumidityBarometerVisibility
11:05 pm
Wed, Jan 18
57 °FFog.5 mph94%30.15 "Hg3 mi
10:35 pm57 °FFog.3 mph94%30.15 "Hg3 mi
9:50 pm57 °FFog.8 mph94%30.15 "Hg3 mi
9:05 pm57 °FFog.7 mph94%30.12 "Hg3 mi
8:20 pm57 °FPassing clouds.7 mph88%30.12 "Hg6 mi
7:50 pm59 °FPassing clouds.7 mph82%30.12 "Hg6 mi
7:20 pm61 °FPassing clouds.6 mph77%30.12 "HgN/A
6:50 pm59 °FPassing clouds.5 mph82%30.09 "HgN/A
6:20 pm59 °FPassing clouds.3 mph82%30.09 "HgN/A
5:50 pm61 °FPassing clouds.5 mph77%30.09 "HgN/A
5:20 pm61 °FPassing clouds.5 mph77%30.09 "HgN/A
4:50 pm63 °FPassing clouds.5 mph73%30.09 "HgN/A
4:20 pm64 °FPassing clouds.7 mph68%30.07 "HgN/A
3:50 pm64 °FPassing clouds.8 mph64%30.07 "HgN/A
3:20 pm66 °FScattered clouds.8 mph56%30.07 "HgN/A
2:50 pm66 °FScattered clouds.7 mph56%30.07 "HgN/A
2:20 pm68 °FScattered clouds.5 mph53%30.07 "HgN/A
1:50 pm66 °FScattered clouds.5 mph60%30.07 "HgN/A
1:20 pm66 °FScattered clouds.6 mph64%30.07 "HgN/A
12:50 pm66 °FScattered clouds.5 mph68%30.07 "HgN/A
12:20 pm64 °FScattered clouds.7 mph68%30.07 "HgN/A
11:50 am64 °FScattered clouds.6 mph68%30.07 "HgN/A
11:20 am63 °FPartly sunny.5 mph77%30.07 "Hg6 mi
10:50 am63 °FScattered clouds.6 mph68%30.09 "Hg6 mi
10:20 am61 °FScattered clouds.6 mph72%30.09 "Hg6 mi
9:50 am59 °FPartly sunny.8 mph72%30.09 "Hg6 mi
9:05 am55 °FScattered clouds.3 mph67%30.09 "Hg6 mi
8:20 am52 °FSunny.1 mph72%30.07 "Hg10 mi
7:50 am48 °FSunny.3 mph82%30.07 "Hg10 mi
7:20 am48 °FSunny.3 mph76%30.04 "Hg10 mi
6:50 am46 °FSunny.1 mph82%30.04 "Hg10 mi
6:20 am50 °FClear.2 mph71%30.01 "Hg10 mi
5:50 am48 °FClear.5 mph76%30.01 "Hg10 mi
5:20 am48 °FClear.1 mph76%29.98 "Hg10 mi
4:50 am50 °FClear.2 mph71%29.98 "Hg10 mi
4:20 am52 °FClear.3 mph67%29.98 "Hg10 mi
3:50 am52 °FClear.3 mph67%29.98 "Hg10 mi
3:20 am52 °FClear.2 mph72%29.98 "Hg10 mi
2:50 am52 °FClear.2 mph72%30.01 "Hg10 mi
2:20 am52 °FClear.5 mph72%30.01 "Hg10 mi
1:50 am52 °FClear.6 mph72%30.01 "Hg10 mi
1:20 am52 °FClear.6 mph77%30.01 "Hg10 mi
12:50 am50 °FClear.1 mph88%30.01 "Hg10 mi
12:20 am50 °FClear.2 mph88%30.01 "Hg10 mi
Weather by CustomWeather, © 2017

See weather overviewHow to use our weather pages